Location: Lake Almanor
(40.2485°N, 121.1442°W)
Time: 23:55:10
(UTC-08:00)

STARLINK-1096 - Pass Details

Date: 02 February 2020
Orbit: 344 x 355 km, 53.0° (Epoch: 23 February)

Event Time Altitude Azimuth Distance (km) Brightness Sun altitude
Rises 19:06:49 0° 293° (WNW) 2,173 7.7 -19.8°
Reaches altitude 10° 19:09:21 10° 270° (W) 1,324 6.8 -20.3°
Maximum altitude 19:11:13 16° 231° (SW) 1,046 5.7 -20.7°
Drops below altitude 10° 19:13:05 10° 191° (S) 1,316 5.7 -21.0°
Enters shadow 19:13:30 - 185° (S) 1,434 5.9 -21.1°
